Content
SEND FEEDBACK

Daily
Averages
Monthly
Summary
France

LE HAVRE, FRANCE


Home > Europe > France
Elevation: 103 meters     Latitude: 49 31N     Longitude: 000 04E

WEATHER
 
SELECT A DAY
Number of Records: 183,882;   Date Range: 3/4/97 - 10/24/14
 
SHARE

PRINT THIS DATA

[ ← Previous Day ]
WEATHER ALMANAC - 29 JANUARY, 2013
[ Next Day → ]
[ °F ]   °C
Weather ElementAverageHighLow
Temperature11.6 °C13 °C (3:00 pm)10 °C (2:00 am)
Dewpoint9.6 °C11 °C (1:00 pm)8 °C (12:30 am)
Humidity88.7 %100 % (7:00 am)77 % (10:00 pm)
Barometer1010.5 hPa1011.2 hPa (12:00 pm)1009.1 hPa (8:00 am)
Wind Speed32.2 km/h38.9 km/h (1:30 am)
Wind Gust59.2 km/h (1:30 am)
Weather ElementAverage
Visibility9.8 km
Wind DirectionSSW (212.1 °)

Weather ElementTotal
Precipitation---
Heating Degree Days6.8 (Base 18.3)
Growing Degree Days1.5 (Base 10)
Averaged from 47 records on 29 January, 2013
WEATHER CONDITIONS BREAKOUT
WIND DIRECTION BREAKOUT
WEATHER BY HOUR - 29 JANUARY, 2013
[ °F ]   °C
Local TimeTemperatureDewpointHumidityBarometerVisibilityWind DirectionWind SpeedGust SpeedPrecipitationEventsConditions
12:30 AM11 °C8 °C82 %1010.2 hPa10 kmSW (220°)35.2 km/hOvercast
1:00 AM11 °C8 °C82 %1010.2 hPa10 kmSW (220°)35.2 km/hOvercast
1:30 AM11 °C8 °C82 %1010.2 hPa10 kmSW (220°)38.9 km/h59.2 km/hOvercast
2:00 AM10 °C9 °C94 %1010.2 hPa10 kmSW (220°)35.2 km/hRainLight Rain
2:30 AM10 °C9 °C94 %1010.2 hPa10 kmSW (220°)33.3 km/hRainLight Rain
3:00 AM10 °C9 °C94 %1010.2 hPa10 kmSSW (210°)31.5 km/hRainRain
3:30 AM10 °C9 °C94 %1010.2 hPa10 kmSSW (210°)31.5 km/hRainLight Rain
4:00 AM10 °C9 °C94 %1010.2 hPa10 kmSSW (200°)27.8 km/hRainLight Rain
4:30 AM10 °C9 °C94 %1010.2 hPa10 kmSSW (210°)27.8 km/hRainLight Rain
5:00 AM10 °C9 °C94 %1010.2 hPa10 kmSSW (210°)29.6 km/hOvercast
5:30 AM10 °C9 °C94 %1010.2 hPa9 kmSSW (210°)29.6 km/hRainLight Rain
6:00 AM10 °C9 °C94 %1010.2 hPa10 kmSSW (210°)24.1 km/hOvercast
6:30 AM10 °C9 °C94 %1010.2 hPa10 kmSSW (200°)29.6 km/hOvercast
7:00 AM10 °C10 °C100 %1010.2 hPa10 kmSSW (210°)31.5 km/hRainLight Rain
7:30 AM11 °C9 °C88 %1010.2 hPa10 kmSSW (210°)29.6 km/hRainLight Rain
8:00 AM11 °C10 °C94 %1009.1 hPa9 kmSSW (200°)29.6 km/hRainLight Rain
8:30 AM11 °C10 °C94 %1010.2 hPa10 kmSSW (210°)31.5 km/hRainLight Rain
9:00 AM11 °C10 °C94 %1010.2 hPa10 kmSSW (210°)31.5 km/hRainLight Rain
9:30 AM11 °C9 °C88 %1010.2 hPa10 kmSW (220°)29.6 km/hRainLight Rain
10:00 AM11 °C9 °C88 %1010.2 hPa10 kmSSW (210°)27.8 km/hRainLight Rain
10:30 AM11 °C9 °C88 %1010.2 hPa10 kmSSW (200°)33.3 km/hOvercast
11:00 AM11 °C9 °C88 %1010.2 hPa10 kmSSW (210°)37 km/h57.5 km/hOvercast
11:30 AM11 °C10 °C94 %1010.2 hPa6 kmSSW (200°)33.3 km/hRainLight Rain
12:00 PM11 °C10 °C94 %1011.2 hPa10 kmSSW (210°)33.3 km/hOvercast
12:30 PM11 °C10 °C94 %1011.2 hPa10 kmSSW (210°)31.5 km/hOvercast
1:00 PM12 °C11 °C94 %1011.2 hPa10 kmSW (220°)31.5 km/hOvercast
1:30 PM12 °C11 °C94 %1011.2 hPa10 kmSW (220°)33.3 km/hOvercast
2:00 PM12 °C11 °C94 %1011.2 hPa10 kmSW (220°)31.5 km/hOvercast
2:30 PM12 °C10 °C88 %1011.2 hPa10 kmSW (220°)29.6 km/h50.1 km/hOvercast
3:00 PM13 °C11 °C88 %1010.2 hPa10 kmSW (220°)31.5 km/hMostly Cloudy
3:30 PM13 °C10 °C82 %1010.2 hPa10 kmSW (220°)33.3 km/hOvercast
4:00 PM13 °C10 °C82 %1010.2 hPa10 kmSW (220°)31.5 km/hOvercast
4:30 PM13 °C10 °C82 %1010.2 hPa10 kmSW (220°)31.5 km/hOvercast
5:00 PM13 °C10 °C82 %1010.2 hPa10 kmSW (220°)37 km/hOvercast
5:30 PM13 °C11 °C88 %1010.2 hPa10 kmSW (220°)35.2 km/hOvercast
6:00 PM13 °C10 °C82 %1011.2 hPa10 kmSW (220°)35.2 km/hOvercast
6:30 PM13 °C10 °C82 %1011.2 hPa10 kmSW (220°)33.3 km/hOvercast
7:00 PM13 °C11 °C88 %1011.2 hPa10 kmSW (220°)33.3 km/hOvercast
7:30 PM13 °C10 °C82 %1011.2 hPa10 kmSW (220°)38.9 km/hOvercast
8:00 PM13 °C10 °C82 %1011.2 hPa10 kmSW (220°)35.2 km/hMostly Cloudy
8:30 PM12 °C10 °C88 %1010.2 hPa10 kmSSW (210°)29.6 km/hMostly Cloudy
9:00 PM12 °C10 °C88 %1011.2 hPa10 kmSSW (200°)29.6 km/hOvercast
9:30 PM13 °C10 °C82 %1010.2 hPa10 kmSSW (200°)31.5 km/h51.8 km/hOvercast
10:00 PM13 °C9 °C77 %1010.2 hPa10 kmSSW (200°)31.5 km/h53.8 km/h
10:30 PM12 °C9 °C82 %1010.2 hPa10 kmSSW (200°)33.3 km/hOvercast
11:00 PM13 °C10 °C82 %1010.2 hPa10 kmSSW (200°)35.2 km/h55.5 km/hOvercast
11:30 PM12 °C10 °C88 %1010.2 hPa10 kmSSW (200°)33.3 km/hOvercast
Hourly data recorded from LFOH, located 0 kilometers away from Le Havre, France







STORIES FROM OUR PARTNERS